Year,Month,Day,Hour,Minute,Value (Times are PST for temperature in C)
2009,07,27,00,00,16.80
2009,07,27,00,01,16.80
2009,07,27,00,02,16.80
2009,07,27,00,03,16.80
2009,07,27,00,04,16.80
2009,07,27,00,05,16.80
2009,07,27,00,06,16.80
2009,07,27,00,07,16.80
2009,07,27,00,08,16.80
2009,07,27,00,09,16.80
2009,07,27,00,10,16.80
2009,07,27,00,11,16.80
2009,07,27,00,12,16.70
2009,07,27,00,13,16.70
2009,07,27,00,14,16.70
2009,07,27,00,15,16.70
2009,07,27,00,16,16.70
2009,07,27,00,17,16.70
2009,07,27,00,18,16.70
2009,07,27,00,19,16.70
2009,07,27,00,20,16.70
2009,07,27,00,21,16.70
2009,07,27,00,22,16.70
2009,07,27,00,23,16.70
2009,07,27,00,24,16.70
2009,07,27,00,25,16.70
2009,07,27,00,26,16.70
2009,07,27,00,27,16.70
2009,07,27,00,28,16.70
2009,07,27,00,29,16.70
2009,07,27,00,30,16.70
2009,07,27,00,31,16.80
2009,07,27,00,32,16.80
2009,07,27,00,33,16.80
2009,07,27,00,34,16.80
2009,07,27,00,35,16.80
2009,07,27,00,36,16.80
2009,07,27,00,37,16.80
2009,07,27,00,38,16.80
2009,07,27,00,39,16.80
2009,07,27,00,40,16.80
2009,07,27,00,41,16.70
2009,07,27,00,42,16.70
2009,07,27,00,43,16.70
2009,07,27,00,44,16.70
2009,07,27,00,45,16.70
2009,07,27,00,46,16.70
2009,07,27,00,47,16.70
2009,07,27,00,48,16.70
2009,07,27,00,49,16.70
2009,07,27,00,50,16.70
2009,07,27,00,51,16.70
2009,07,27,00,52,16.70
2009,07,27,00,53,16.70
2009,07,27,00,54,16.70
2009,07,27,00,55,16.70
2009,07,27,00,56,16.70
2009,07,27,00,57,16.70
2009,07,27,00,58,16.70
2009,07,27,00,59,16.70
2009,07,27,01,00,16.70
2009,07,27,01,01,16.70
2009,07,27,01,02,16.70
2009,07,27,01,03,16.70
2009,07,27,01,04,16.70
2009,07,27,01,05,16.70
2009,07,27,01,06,16.70
2009,07,27,01,07,16.70
2009,07,27,01,08,16.70
2009,07,27,01,09,16.70
2009,07,27,01,10,16.70
2009,07,27,01,11,16.70
2009,07,27,01,12,16.70
2009,07,27,01,13,16.70
2009,07,27,01,14,16.70
2009,07,27,01,15,16.70
2009,07,27,01,16,16.70
2009,07,27,01,17,16.70
2009,07,27,01,18,16.70
2009,07,27,01,19,16.70
2009,07,27,01,20,16.70
2009,07,27,01,21,16.70
2009,07,27,01,22,16.70
2009,07,27,01,23,16.70
2009,07,27,01,24,16.70
2009,07,27,01,25,16.70
2009,07,27,01,26,16.70
2009,07,27,01,27,16.70
2009,07,27,01,28,16.70
2009,07,27,01,29,16.70
2009,07,27,01,30,16.60
2009,07,27,01,31,16.60
2009,07,27,01,32,16.60
2009,07,27,01,33,16.60
2009,07,27,01,34,16.60
2009,07,27,01,35,16.70
2009,07,27,01,36,16.70
2009,07,27,01,37,16.70
2009,07,27,01,38,16.70
2009,07,27,01,39,16.70
2009,07,27,01,40,16.70
2009,07,27,01,41,16.70
2009,07,27,01,42,16.80
2009,07,27,01,43,16.80
2009,07,27,01,44,16.80
2009,07,27,01,45,16.80
2009,07,27,01,46,16.80
2009,07,27,01,47,16.80
2009,07,27,01,48,16.70
2009,07,27,01,49,16.70
2009,07,27,01,50,16.70
2009,07,27,01,51,16.70
2009,07,27,01,52,16.60
2009,07,27,01,53,16.50
2009,07,27,01,54,16.40
2009,07,27,01,55,16.30
2009,07,27,01,56,16.30
2009,07,27,01,57,16.20
2009,07,27,01,58,16.10
2009,07,27,01,59,16.00
2009,07,27,02,00,15.90
2009,07,27,02,01,15.80
2009,07,27,02,02,15.80
2009,07,27,02,03,15.80
2009,07,27,02,04,15.70
2009,07,27,02,05,15.70
2009,07,27,02,06,15.60
2009,07,27,02,07,15.60
2009,07,27,02,08,15.50
2009,07,27,02,09,15.50
2009,07,27,02,10,15.50
2009,07,27,02,11,15.50
2009,07,27,02,12,15.50
2009,07,27,02,13,15.50
2009,07,27,02,14,15.40
2009,07,27,02,15,15.40
2009,07,27,02,16,15.40
2009,07,27,02,17,15.40
2009,07,27,02,18,15.40
2009,07,27,02,19,15.50
2009,07,27,02,20,15.50
2009,07,27,02,21,15.50
2009,07,27,02,22,15.50
2009,07,27,02,23,15.40
2009,07,27,02,24,15.40
2009,07,27,02,25,15.40
2009,07,27,02,26,15.30
2009,07,27,02,27,15.30
2009,07,27,02,28,15.30
2009,07,27,02,29,15.30
2009,07,27,02,30,15.30
2009,07,27,02,31,15.30
2009,07,27,02,32,15.30
2009,07,27,02,33,15.20
2009,07,27,02,34,15.20
2009,07,27,02,35,15.20
2009,07,27,02,36,15.20
2009,07,27,02,37,15.10
2009,07,27,02,38,15.10
2009,07,27,02,39,15.00
2009,07,27,02,40,15.00
2009,07,27,02,41,15.00
2009,07,27,02,42,14.90
2009,07,27,02,43,14.90
2009,07,27,02,44,14.90
2009,07,27,02,45,14.80
2009,07,27,02,46,14.80
2009,07,27,02,47,14.80
2009,07,27,02,48,14.80
2009,07,27,02,49,14.80
2009,07,27,02,50,14.80
2009,07,27,02,51,14.70
2009,07,27,02,52,14.70
2009,07,27,02,53,14.60
2009,07,27,02,54,14.60
2009,07,27,02,55,14.60
2009,07,27,02,56,14.50
2009,07,27,02,57,14.50
2009,07,27,02,58,14.40
2009,07,27,02,59,14.40
2009,07,27,03,00,14.30
2009,07,27,03,01,14.30
2009,07,27,03,02,14.30
2009,07,27,03,03,14.30
2009,07,27,03,04,14.30
2009,07,27,03,05,14.20
2009,07,27,03,06,14.20
2009,07,27,03,07,14.20
2009,07,27,03,08,14.20
2009,07,27,03,09,14.20
2009,07,27,03,10,14.20
2009,07,27,03,11,14.20
2009,07,27,03,12,14.20
2009,07,27,03,13,14.20
2009,07,27,03,14,14.20
2009,07,27,03,15,14.20
2009,07,27,03,16,14.20
2009,07,27,03,17,14.20
2009,07,27,03,18,14.10
2009,07,27,03,19,14.10
2009,07,27,03,20,14.10
2009,07,27,03,21,14.10
2009,07,27,03,22,14.10
2009,07,27,03,23,14.20
2009,07,27,03,24,14.20
2009,07,27,03,25,14.10
2009,07,27,03,26,14.10
2009,07,27,03,27,14.10
2009,07,27,03,28,14.10
2009,07,27,03,29,14.10
2009,07,27,03,30,14.10
2009,07,27,03,31,14.10
2009,07,27,03,32,14.10
2009,07,27,03,33,14.10
2009,07,27,03,34,14.10
2009,07,27,03,35,14.10
2009,07,27,03,36,14.10
2009,07,27,03,37,14.10
2009,07,27,03,38,14.10
2009,07,27,03,39,14.10
2009,07,27,03,40,14.10
2009,07,27,03,41,14.20
2009,07,27,03,42,14.10
2009,07,27,03,43,14.10
2009,07,27,03,44,14.10
2009,07,27,03,45,14.10
2009,07,27,03,46,14.10
2009,07,27,03,47,14.10
2009,07,27,03,48,14.10
2009,07,27,03,49,14.10
2009,07,27,03,50,14.10
2009,07,27,03,51,14.10
2009,07,27,03,52,14.10
2009,07,27,03,53,14.10
2009,07,27,03,54,14.10
2009,07,27,03,55,14.10
2009,07,27,03,56,14.10
2009,07,27,03,57,14.10
2009,07,27,03,58,14.10
2009,07,27,03,59,14.10
2009,07,27,04,00,14.20
2009,07,27,04,01,14.20
2009,07,27,04,02,14.20
2009,07,27,04,03,14.20
2009,07,27,04,04,14.20
2009,07,27,04,05,14.20
2009,07,27,04,06,14.20
2009,07,27,04,07,14.20
2009,07,27,04,08,14.20
2009,07,27,04,09,14.20
2009,07,27,04,10,14.20
2009,07,27,04,11,14.20
2009,07,27,04,12,14.20
2009,07,27,04,13,14.20
2009,07,27,04,14,14.30
2009,07,27,04,15,14.30
2009,07,27,04,16,14.30
2009,07,27,04,17,14.30
2009,07,27,04,18,14.30
2009,07,27,04,19,14.30
2009,07,27,04,20,14.40
2009,07,27,04,21,14.40
2009,07,27,04,22,14.40
2009,07,27,04,23,14.40
2009,07,27,04,24,14.40
2009,07,27,04,25,14.50
2009,07,27,04,26,14.50
2009,07,27,04,27,14.50
2009,07,27,04,28,14.50
2009,07,27,04,29,14.50
2009,07,27,04,30,14.60
2009,07,27,04,31,14.60
2009,07,27,04,32,14.60
2009,07,27,04,33,14.60
2009,07,27,04,34,14.60
2009,07,27,04,35,14.60
2009,07,27,04,36,14.60
2009,07,27,04,37,14.60
2009,07,27,04,38,14.60
2009,07,27,04,39,14.60
2009,07,27,04,40,14.60
2009,07,27,04,41,14.60
2009,07,27,04,42,14.70
2009,07,27,04,43,14.70
2009,07,27,04,44,14.70
2009,07,27,04,45,14.70
2009,07,27,04,46,14.70
2009,07,27,04,47,14.70
2009,07,27,04,48,14.70
2009,07,27,04,49,14.70
2009,07,27,04,50,14.70
2009,07,27,04,51,14.70
2009,07,27,04,52,14.70
2009,07,27,04,53,14.70
2009,07,27,04,54,14.70
2009,07,27,04,55,14.70
2009,07,27,04,56,14.80
2009,07,27,04,57,14.80
2009,07,27,04,58,14.80
2009,07,27,04,59,14.80
2009,07,27,05,00,14.80
2009,07,27,05,01,14.80
2009,07,27,05,02,14.80
2009,07,27,05,03,14.80
2009,07,27,05,04,14.80
2009,07,27,05,05,14.80
2009,07,27,05,06,14.90
2009,07,27,05,07,14.90
2009,07,27,05,08,15.00
2009,07,27,05,09,15.00
2009,07,27,05,10,15.00
2009,07,27,05,11,15.10
2009,07,27,05,12,15.10
2009,07,27,05,13,15.20
2009,07,27,05,14,15.20
2009,07,27,05,15,15.20
2009,07,27,05,16,15.30
2009,07,27,05,17,15.30
2009,07,27,05,18,15.30
2009,07,27,05,19,15.30
2009,07,27,05,20,15.30
2009,07,27,05,21,15.30
2009,07,27,05,22,15.30
2009,07,27,05,23,15.30
2009,07,27,05,24,15.30
2009,07,27,05,25,15.40
2009,07,27,05,26,15.40
2009,07,27,05,27,15.40
2009,07,27,05,28,15.40
2009,07,27,05,29,15.40
2009,07,27,05,30,15.40
2009,07,27,05,31,15.40
2009,07,27,05,32,15.40
2009,07,27,05,33,15.40
2009,07,27,05,34,15.40
2009,07,27,05,35,15.40
2009,07,27,05,36,15.40
2009,07,27,05,37,15.40
2009,07,27,05,38,15.30
2009,07,27,05,39,15.30
2009,07,27,05,40,15.30
2009,07,27,05,41,15.40
2009,07,27,05,42,15.40
2009,07,27,05,43,15.40
2009,07,27,05,44,15.40
2009,07,27,05,45,15.40
2009,07,27,05,46,15.50
2009,07,27,05,47,15.50
2009,07,27,05,48,15.50
2009,07,27,05,49,15.50
2009,07,27,05,50,15.50
2009,07,27,05,51,15.60
2009,07,27,05,52,15.60
2009,07,27,05,53,15.60
2009,07,27,05,54,15.60
2009,07,27,05,55,15.60
2009,07,27,05,56,15.60
2009,07,27,05,57,15.60
2009,07,27,05,58,15.70
2009,07,27,05,59,15.70
2009,07,27,06,00,15.70
2009,07,27,06,01,15.70
2009,07,27,06,02,15.80
2009,07,27,06,03,15.80
2009,07,27,06,04,15.80
2009,07,27,06,05,15.90
2009,07,27,06,06,15.90
2009,07,27,06,07,15.90
2009,07,27,06,08,16.00
2009,07,27,06,09,16.10
2009,07,27,06,10,16.10
2009,07,27,06,11,16.10
2009,07,27,06,12,16.10
2009,07,27,06,13,16.10
2009,07,27,06,14,16.20
2009,07,27,06,15,16.20
2009,07,27,06,16,16.20
2009,07,27,06,17,16.30
2009,07,27,06,18,16.30
2009,07,27,06,19,16.40
2009,07,27,06,20,16.40
2009,07,27,06,21,16.50
2009,07,27,06,22,16.60
2009,07,27,06,23,16.70
2009,07,27,06,24,16.70
2009,07,27,06,25,16.70
2009,07,27,06,26,16.80
2009,07,27,06,27,16.90
2009,07,27,06,28,17.00
2009,07,27,06,29,17.00
2009,07,27,06,30,17.00
2009,07,27,06,31,17.10
2009,07,27,06,32,17.20
2009,07,27,06,33,17.20
2009,07,27,06,34,17.30
2009,07,27,06,35,17.30
2009,07,27,06,36,17.30
2009,07,27,06,37,17.30
2009,07,27,06,38,17.30
2009,07,27,06,39,17.40
2009,07,27,06,40,17.40
2009,07,27,06,41,17.40
2009,07,27,06,42,17.40
2009,07,27,06,43,17.50
2009,07,27,06,44,17.50
2009,07,27,06,45,17.50
2009,07,27,06,46,17.50
2009,07,27,06,47,17.50
2009,07,27,06,48,17.50
2009,07,27,06,49,17.50
2009,07,27,06,50,17.50
2009,07,27,06,51,17.50
2009,07,27,06,52,17.60
2009,07,27,06,53,17.60
2009,07,27,06,54,17.60
2009,07,27,06,55,17.70
2009,07,27,06,56,17.70
2009,07,27,06,57,17.80
2009,07,27,06,58,17.80
2009,07,27,06,59,17.80
2009,07,27,07,00,17.90
2009,07,27,07,01,17.90
2009,07,27,07,02,17.90
2009,07,27,07,03,17.90
2009,07,27,07,04,17.90
2009,07,27,07,05,17.90
2009,07,27,07,06,17.90
2009,07,27,07,07,17.90
2009,07,27,07,08,17.90
2009,07,27,07,09,17.90
2009,07,27,07,10,17.90
2009,07,27,07,11,17.90
2009,07,27,07,12,18.10
2009,07,27,07,13,18.10
2009,07,27,07,14,18.10
2009,07,27,07,15,18.10
2009,07,27,07,16,18.10
2009,07,27,07,17,18.00
2009,07,27,07,18,18.00
2009,07,27,07,19,17.90
2009,07,27,07,20,17.90
2009,07,27,07,21,17.90
2009,07,27,07,22,17.90
2009,07,27,07,23,17.90
2009,07,27,07,24,17.90
2009,07,27,07,25,17.90
2009,07,27,07,26,17.90
2009,07,27,07,27,17.90
2009,07,27,07,28,17.90
2009,07,27,07,29,17.90
2009,07,27,07,30,17.90
2009,07,27,07,31,17.90
2009,07,27,07,32,17.90
2009,07,27,07,33,17.90
2009,07,27,07,34,17.90
2009,07,27,07,35,17.90
2009,07,27,07,36,17.90
2009,07,27,07,37,18.00
2009,07,27,07,38,18.10
2009,07,27,07,39,18.10
2009,07,27,07,40,18.00
2009,07,27,07,41,17.90
2009,07,27,07,42,17.90
2009,07,27,07,43,17.90
2009,07,27,07,44,17.90
2009,07,27,07,45,17.90
2009,07,27,07,46,17.90
2009,07,27,07,47,17.90
2009,07,27,07,48,17.90
2009,07,27,07,49,17.90
2009,07,27,07,50,18.10
2009,07,27,07,51,18.20
2009,07,27,07,52,18.20
2009,07,27,07,53,18.30
2009,07,27,07,54,18.40
2009,07,27,07,55,18.40
2009,07,27,07,56,18.50
2009,07,27,07,57,18.50
2009,07,27,07,58,18.60
2009,07,27,07,59,18.60
2009,07,27,08,00,18.70
2009,07,27,08,01,18.70
2009,07,27,08,02,18.70
2009,07,27,08,03,18.70
2009,07,27,08,04,18.80
2009,07,27,08,05,18.90
2009,07,27,08,06,18.90
2009,07,27,08,07,18.90
2009,07,27,08,08,19.00
2009,07,27,08,09,19.10
2009,07,27,08,10,19.30
2009,07,27,08,11,19.40
2009,07,27,08,12,19.60
2009,07,27,08,13,19.70
2009,07,27,08,14,19.80
2009,07,27,08,15,19.90
2009,07,27,08,16,20.00
2009,07,27,08,17,20.10
2009,07,27,08,18,20.20
2009,07,27,08,19,20.40
2009,07,27,08,20,20.50
2009,07,27,08,21,20.70
2009,07,27,08,22,20.90
2009,07,27,08,23,21.00
2009,07,27,08,24,21.20
2009,07,27,08,25,21.20
2009,07,27,08,26,21.20
2009,07,27,08,27,21.30
2009,07,27,08,28,21.30
2009,07,27,08,29,21.30
2009,07,27,08,30,21.30
2009,07,27,08,31,21.40
2009,07,27,08,32,21.50
2009,07,27,08,33,21.60
2009,07,27,08,34,21.60
2009,07,27,08,35,21.60
2009,07,27,08,36,21.60
2009,07,27,08,37,21.70
2009,07,27,08,38,21.80
2009,07,27,08,39,21.90
2009,07,27,08,40,22.00
2009,07,27,08,41,22.00
2009,07,27,08,42,22.10
2009,07,27,08,43,22.20
2009,07,27,08,44,22.20
2009,07,27,08,45,22.20
2009,07,27,08,46,22.20
2009,07,27,08,47,22.20
2009,07,27,08,48,22.20
2009,07,27,08,49,22.20
2009,07,27,08,50,22.20
2009,07,27,08,51,22.20
2009,07,27,08,52,22.30
2009,07,27,08,53,22.40
2009,07,27,08,54,22.40
2009,07,27,08,55,22.40
2009,07,27,08,56,22.40
2009,07,27,08,57,22.50
2009,07,27,08,58,22.60
2009,07,27,08,59,22.60
2009,07,27,09,00,22.80
2009,07,27,09,01,22.90
2009,07,27,09,02,23.00
2009,07,27,09,03,23.20
2009,07,27,09,04,23.30
2009,07,27,09,05,23.30
2009,07,27,09,06,23.40
2009,07,27,09,07,23.40
2009,07,27,09,08,23.50
2009,07,27,09,09,23.60
2009,07,27,09,10,23.60
2009,07,27,09,11,23.70
2009,07,27,09,12,23.70
2009,07,27,09,13,23.80
2009,07,27,09,14,23.80
2009,07,27,09,15,23.90
2009,07,27,09,16,24.00
2009,07,27,09,17,24.10
2009,07,27,09,18,24.10
2009,07,27,09,19,24.20
2009,07,27,09,20,24.30
2009,07,27,09,21,24.40
2009,07,27,09,22,24.40
2009,07,27,09,23,24.50
2009,07,27,09,24,24.50
2009,07,27,09,25,24.60
2009,07,27,09,26,24.70
2009,07,27,09,27,24.70
2009,07,27,09,28,24.60
2009,07,27,09,29,24.50
2009,07,27,09,30,24.20
2009,07,27,09,31,24.00
2009,07,27,09,32,23.50
2009,07,27,09,33,23.10
2009,07,27,09,34,22.70
2009,07,27,09,35,22.30
2009,07,27,09,36,22.20
2009,07,27,09,37,22.00
2009,07,27,09,38,22.00
2009,07,27,09,39,21.80
2009,07,27,09,40,21.70
2009,07,27,09,41,21.50
2009,07,27,09,42,21.30
2009,07,27,09,43,21.10
2009,07,27,09,44,21.00
2009,07,27,09,45,21.00
2009,07,27,09,46,21.00
2009,07,27,09,47,21.00
2009,07,27,09,48,21.10
2009,07,27,09,49,21.30
2009,07,27,09,50,21.30
2009,07,27,09,51,21.40
2009,07,27,09,52,21.50
2009,07,27,09,53,21.60
2009,07,27,09,54,21.70
2009,07,27,09,55,21.90
2009,07,27,09,56,22.10
2009,07,27,09,57,22.20
2009,07,27,09,58,22.40
2009,07,27,09,59,22.60
2009,07,27,10,00,22.70
2009,07,27,10,01,22.80
2009,07,27,10,02,22.90
2009,07,27,10,03,23.10
2009,07,27,10,04,23.30
2009,07,27,10,05,23.40
2009,07,27,10,06,23.40
2009,07,27,10,07,23.40
2009,07,27,10,08,23.60
2009,07,27,10,09,23.60
2009,07,27,10,10,23.40
2009,07,27,10,11,23.30
2009,07,27,10,12,23.20
2009,07,27,10,13,23.20
2009,07,27,10,14,23.10
2009,07,27,10,15,23.10
2009,07,27,10,16,23.20
2009,07,27,10,17,23.20
2009,07,27,10,18,23.10
2009,07,27,10,19,23.00
2009,07,27,10,20,22.90
2009,07,27,10,21,23.10
2009,07,27,10,22,23.20
2009,07,27,10,23,23.30
2009,07,27,10,24,23.40
2009,07,27,10,25,23.70
2009,07,27,10,26,23.80
2009,07,27,10,27,24.00
2009,07,27,10,28,24.30
2009,07,27,10,29,24.50
2009,07,27,10,30,24.70
2009,07,27,10,31,24.80
2009,07,27,10,32,24.90
2009,07,27,10,33,25.10
2009,07,27,10,34,25.20
2009,07,27,10,35,25.40
2009,07,27,10,36,25.50
2009,07,27,10,37,25.60
2009,07,27,10,38,25.80
2009,07,27,10,39,25.90
2009,07,27,10,40,26.00
2009,07,27,10,41,26.10
2009,07,27,10,42,26.20
2009,07,27,10,43,26.20
2009,07,27,10,44,26.20
2009,07,27,10,45,26.30
2009,07,27,10,46,26.40
2009,07,27,10,47,26.50
2009,07,27,10,48,26.60
2009,07,27,10,49,26.60
2009,07,27,10,50,26.60
2009,07,27,10,51,26.60
2009,07,27,10,52,26.60
2009,07,27,10,53,26.60
2009,07,27,10,54,26.70
2009,07,27,10,55,26.70
2009,07,27,10,56,26.80
2009,07,27,10,57,26.80
2009,07,27,10,58,26.80
2009,07,27,10,59,26.90
2009,07,27,11,00,26.90
2009,07,27,11,01,27.10
2009,07,27,11,02,27.20
2009,07,27,11,03,27.20
2009,07,27,11,04,27.30
2009,07,27,11,05,27.30
2009,07,27,11,06,27.30
2009,07,27,11,07,27.30
2009,07,27,11,08,27.30
2009,07,27,11,09,27.30
2009,07,27,11,10,27.20
2009,07,27,11,11,27.20
2009,07,27,11,12,27.20
2009,07,27,11,13,27.20
2009,07,27,11,14,27.30
2009,07,27,11,15,27.30
2009,07,27,11,16,27.30
2009,07,27,11,17,27.40
2009,07,27,11,18,27.40
2009,07,27,11,19,27.30
2009,07,27,11,20,27.30
2009,07,27,11,21,27.30
2009,07,27,11,22,27.30
2009,07,27,11,23,27.30
2009,07,27,11,24,27.30
2009,07,27,11,25,27.10
2009,07,27,11,26,27.00
2009,07,27,11,27,26.80
2009,07,27,11,28,26.80
2009,07,27,11,29,26.70
2009,07,27,11,30,26.80
2009,07,27,11,31,26.80
2009,07,27,11,32,26.80
2009,07,27,11,33,26.60
2009,07,27,11,34,26.20
2009,07,27,11,35,25.80
2009,07,27,11,36,25.40
2009,07,27,11,37,25.00
2009,07,27,11,38,24.80
2009,07,27,11,39,24.50
2009,07,27,11,40,24.40
2009,07,27,11,41,24.20
2009,07,27,11,42,24.20
2009,07,27,11,43,24.10
2009,07,27,11,44,24.00
2009,07,27,11,45,23.90
2009,07,27,11,46,23.90
2009,07,27,11,47,23.90
2009,07,27,11,48,23.80
2009,07,27,11,49,23.80
2009,07,27,11,50,23.80
2009,07,27,11,51,23.80
2009,07,27,11,52,23.80
2009,07,27,11,53,23.80
2009,07,27,11,54,23.80
2009,07,27,11,55,23.90
2009,07,27,11,56,23.90
2009,07,27,11,57,23.90
2009,07,27,11,58,24.00
2009,07,27,11,59,24.10
2009,07,27,12,00,24.30
2009,07,27,12,01,24.40
2009,07,27,12,02,24.40
2009,07,27,12,03,24.50
2009,07,27,12,04,24.50
2009,07,27,12,05,24.50
2009,07,27,12,06,24.40
2009,07,27,12,07,24.40
2009,07,27,12,08,24.30
2009,07,27,12,09,24.30
2009,07,27,12,10,24.40
2009,07,27,12,11,24.50
2009,07,27,12,12,24.50
2009,07,27,12,13,24.40
2009,07,27,12,14,24.50
2009,07,27,12,15,24.60
2009,07,27,12,16,24.50
2009,07,27,12,17,24.50
2009,07,27,12,18,24.50
2009,07,27,12,19,24.50
2009,07,27,12,20,24.50
2009,07,27,12,21,24.60
2009,07,27,12,22,24.80
2009,07,27,12,23,24.80
2009,07,27,12,24,24.90
2009,07,27,12,25,24.90
2009,07,27,12,26,25.00
2009,07,27,12,27,25.00
2009,07,27,12,28,25.10
2009,07,27,12,29,25.20
2009,07,27,12,30,25.20
2009,07,27,12,31,25.20
2009,07,27,12,32,25.30
2009,07,27,12,33,25.30
2009,07,27,12,34,25.20
2009,07,27,12,35,25.10
2009,07,27,12,36,25.10
2009,07,27,12,37,25.20
2009,07,27,12,38,25.20
2009,07,27,12,39,25.20
2009,07,27,12,40,25.30
2009,07,27,12,41,25.40
2009,07,27,12,42,25.60
2009,07,27,12,43,25.80
2009,07,27,12,44,25.90
2009,07,27,12,45,26.10
2009,07,27,12,46,26.20
2009,07,27,12,47,26.30
2009,07,27,12,48,26.30
2009,07,27,12,49,26.30
2009,07,27,12,50,26.30
2009,07,27,12,51,26.30
2009,07,27,12,52,26.40
2009,07,27,12,53,26.40
2009,07,27,12,54,26.60
2009,07,27,12,55,26.60
2009,07,27,12,56,26.60
2009,07,27,12,57,26.50
2009,07,27,12,58,26.30
2009,07,27,12,59,26.40
2009,07,27,13,00,26.40
2009,07,27,13,01,26.50
2009,07,27,13,02,26.40
2009,07,27,13,03,26.30
2009,07,27,13,04,26.40
2009,07,27,13,05,26.60
2009,07,27,13,06,26.60
2009,07,27,13,07,26.70
2009,07,27,13,08,26.70
2009,07,27,13,09,26.70
2009,07,27,13,10,26.60
2009,07,27,13,11,26.60
2009,07,27,13,12,26.50
2009,07,27,13,13,26.20
2009,07,27,13,14,26.00
2009,07,27,13,15,25.90
2009,07,27,13,16,25.80
2009,07,27,13,17,25.80
2009,07,27,13,18,25.70
2009,07,27,13,19,25.60
2009,07,27,13,20,25.60
2009,07,27,13,21,25.70
2009,07,27,13,22,25.70
2009,07,27,13,23,25.70
2009,07,27,13,24,25.80
2009,07,27,13,25,25.80
2009,07,27,13,26,25.60
2009,07,27,13,27,25.50
2009,07,27,13,28,25.60
2009,07,27,13,29,25.50
2009,07,27,13,30,25.30
2009,07,27,13,31,25.40
2009,07,27,13,32,25.40
2009,07,27,13,33,25.50
2009,07,27,13,34,25.60
2009,07,27,13,35,25.70
2009,07,27,13,36,25.80
2009,07,27,13,37,25.80
2009,07,27,13,38,25.80
2009,07,27,13,39,25.90
2009,07,27,13,40,25.90
2009,07,27,13,41,25.90
2009,07,27,13,42,26.10
2009,07,27,13,43,26.20
2009,07,27,13,44,26.10
2009,07,27,13,45,26.00
2009,07,27,13,46,26.00
2009,07,27,13,47,26.10
2009,07,27,13,48,26.20
2009,07,27,13,49,26.20
2009,07,27,13,50,25.90
2009,07,27,13,51,25.80
2009,07,27,13,52,25.70
2009,07,27,13,53,25.60
2009,07,27,13,54,25.50
2009,07,27,13,55,25.50
2009,07,27,13,56,25.50
2009,07,27,13,57,25.40
2009,07,27,13,58,25.30
2009,07,27,13,59,25.20
2009,07,27,14,00,25.20
2009,07,27,14,01,25.20
2009,07,27,14,02,25.20
2009,07,27,14,03,25.30
2009,07,27,14,04,25.30
2009,07,27,14,05,25.20
2009,07,27,14,06,25.20
2009,07,27,14,07,25.20
2009,07,27,14,08,25.20
2009,07,27,14,09,25.30
2009,07,27,14,10,25.30
2009,07,27,14,11,25.40
2009,07,27,14,12,25.50
2009,07,27,14,13,25.50
2009,07,27,14,14,25.50
2009,07,27,14,15,25.50
2009,07,27,14,16,25.50
2009,07,27,14,17,25.50
2009,07,27,14,18,25.60
2009,07,27,14,19,25.70
2009,07,27,14,20,25.70
2009,07,27,14,21,25.80
2009,07,27,14,22,25.80
2009,07,27,14,23,25.70
2009,07,27,14,24,25.60
2009,07,27,14,25,25.50
2009,07,27,14,26,25.50
2009,07,27,14,27,25.40
2009,07,27,14,28,25.40
2009,07,27,14,29,25.40
2009,07,27,14,30,25.40
2009,07,27,14,31,25.50
2009,07,27,14,32,25.70
2009,07,27,14,33,25.80
2009,07,27,14,34,25.80
2009,07,27,14,35,25.70
2009,07,27,14,36,25.70
2009,07,27,14,37,25.60
2009,07,27,14,38,25.50
2009,07,27,14,39,25.50
2009,07,27,14,40,25.50
2009,07,27,14,41,25.40
2009,07,27,14,42,25.40
2009,07,27,14,43,25.40
2009,07,27,14,44,25.30
2009,07,27,14,45,25.40
2009,07,27,14,46,25.60
2009,07,27,14,47,25.60
2009,07,27,14,48,25.60
2009,07,27,14,49,25.40
2009,07,27,14,50,25.30
2009,07,27,14,51,25.20
2009,07,27,14,52,25.10
2009,07,27,14,53,25.10
2009,07,27,14,54,25.10
2009,07,27,14,55,25.30
2009,07,27,14,56,25.30
2009,07,27,14,57,25.30
2009,07,27,14,58,25.30
2009,07,27,14,59,25.20
2009,07,27,15,00,25.30
2009,07,27,15,01,25.40
2009,07,27,15,02,25.50
2009,07,27,15,03,25.50
2009,07,27,15,04,25.50
2009,07,27,15,05,25.60
2009,07,27,15,06,25.70
2009,07,27,15,07,25.80
2009,07,27,15,08,25.90
2009,07,27,15,09,25.80
2009,07,27,15,10,25.90
2009,07,27,15,11,25.90
2009,07,27,15,12,26.10
2009,07,27,15,13,26.10
2009,07,27,15,14,26.00
2009,07,27,15,15,26.10
2009,07,27,15,16,26.10
2009,07,27,15,17,26.10
2009,07,27,15,18,26.00
2009,07,27,15,19,26.00
2009,07,27,15,20,25.90
2009,07,27,15,21,25.90
2009,07,27,15,22,25.90
2009,07,27,15,23,25.80
2009,07,27,15,24,25.60
2009,07,27,15,25,25.70
2009,07,27,15,26,25.80
2009,07,27,15,27,26.00
2009,07,27,15,28,26.20
2009,07,27,15,29,26.20
2009,07,27,15,30,26.00
2009,07,27,15,31,26.00
2009,07,27,15,32,26.00
2009,07,27,15,33,25.80
2009,07,27,15,34,25.80
2009,07,27,15,35,25.80
2009,07,27,15,36,25.80
2009,07,27,15,37,25.80
2009,07,27,15,38,25.90
2009,07,27,15,39,25.80
2009,07,27,15,40,25.80
2009,07,27,15,41,25.80
2009,07,27,15,42,25.80
2009,07,27,15,43,25.70
2009,07,27,15,44,25.80
2009,07,27,15,45,25.90
2009,07,27,15,46,26.00
2009,07,27,15,47,26.10
2009,07,27,15,48,26.30
2009,07,27,15,49,26.30
2009,07,27,15,50,26.40
2009,07,27,15,51,26.40
2009,07,27,15,52,26.50
2009,07,27,15,53,26.60
2009,07,27,15,54,26.60
2009,07,27,15,55,26.70
2009,07,27,15,56,26.80
2009,07,27,15,57,26.80
2009,07,27,15,58,26.80
2009,07,27,15,59,26.60
2009,07,27,16,00,26.60
2009,07,27,16,01,26.60
2009,07,27,16,02,26.60
2009,07,27,16,03,26.60
2009,07,27,16,04,26.60
2009,07,27,16,05,26.60
2009,07,27,16,06,26.60
2009,07,27,16,07,26.60
2009,07,27,16,08,26.80
2009,07,27,16,09,26.80
2009,07,27,16,10,26.70
2009,07,27,16,11,26.80
2009,07,27,16,12,26.80
2009,07,27,16,13,26.80
2009,07,27,16,14,26.90
2009,07,27,16,15,27.00
2009,07,27,16,16,27.00
2009,07,27,16,17,26.90
2009,07,27,16,18,26.80
2009,07,27,16,19,26.80
2009,07,27,16,20,26.70
2009,07,27,16,21,26.80
2009,07,27,16,22,26.80
2009,07,27,16,23,26.90
2009,07,27,16,24,26.90
2009,07,27,16,25,27.00
2009,07,27,16,26,27.10
2009,07,27,16,27,27.20
2009,07,27,16,28,27.20
2009,07,27,16,29,27.20
2009,07,27,16,30,27.20
2009,07,27,16,31,27.20
2009,07,27,16,32,27.30
2009,07,27,16,33,27.40
2009,07,27,16,34,27.60
2009,07,27,16,35,27.70
2009,07,27,16,36,27.80
2009,07,27,16,37,27.90
2009,07,27,16,38,28.00
2009,07,27,16,39,28.00
2009,07,27,16,40,28.00
2009,07,27,16,41,28.10
2009,07,27,16,42,28.10
2009,07,27,16,43,28.20
2009,07,27,16,44,28.40
2009,07,27,16,45,28.50
2009,07,27,16,46,28.60
2009,07,27,16,47,28.70
2009,07,27,16,48,28.80
2009,07,27,16,49,28.90
2009,07,27,16,50,29.00
2009,07,27,16,51,29.10
2009,07,27,16,52,29.20
2009,07,27,16,53,29.30
2009,07,27,16,54,29.40
2009,07,27,16,55,29.50
2009,07,27,16,56,29.50
2009,07,27,16,57,29.70
2009,07,27,16,58,29.70
2009,07,27,16,59,29.70
2009,07,27,17,00,29.80
2009,07,27,17,01,29.80
2009,07,27,17,02,29.70
2009,07,27,17,03,29.60
2009,07,27,17,04,29.50
2009,07,27,17,05,29.30
2009,07,27,17,06,29.00
2009,07,27,17,07,28.90
2009,07,27,17,08,28.80
2009,07,27,17,09,28.80
2009,07,27,17,10,28.80
2009,07,27,17,11,28.80
2009,07,27,17,12,28.90
2009,07,27,17,13,28.90
2009,07,27,17,14,28.90
2009,07,27,17,15,28.90
2009,07,27,17,16,28.90
2009,07,27,17,17,28.80
2009,07,27,17,18,28.70
2009,07,27,17,19,28.60